WE8M Weather Reports


Display with metric or nautical units.
time (UTC)temp
F
wind
direction
speed
MPH
gust
MPH
rain 1hr
in
rain 24hr
in
rain mn
in
humidity
%
barometer
mb
20260903051404 75 220 0.0 1.0 0.00 0.00 0.00 86 1017.7
20260903050859 75 220 0.0 0.0 0.00 0.00 0.00 86 1017.6
20260903050358 76 220 0.0 1.0 0.00 0.00 0.00 85 1017.6
20260903045853 76 220 0.0 1.0 0.00 0.00 0.00 84 1017.4
20260903045349 76 220 0.0 1.0 0.00 0.00 0.00 84 1017.6
20260903044846 76 220 0.0 1.0 0.00 0.00 0.00 84 1017.5
20260903044345 76 220 0.0 1.0 0.00 0.00 0.00 85 1017.5
20260903043842 75 220 0.0 1.0 0.00 0.00 0.00 85 1017.4
20260903043337 76 220 0.0 0.0 0.00 0.00 0.00 86 1017.3
20260903042835 76 220 0.0 0.0 0.00 0.00 0.00 84 1017.2
20260903042331 76 220 0.0 1.0 0.00 0.00 0.00 84 1017.1
20260903041827 76 220 1.0 1.0 0.00 0.00 0.00 84 1017.3
20260903041323 76 220 0.0 1.0 0.00 0.00 0.00 84 1017.5
20260903040819 76 220 1.0 1.0 0.00 0.00 0.00 83 1017.3
20260903040317 76 220 0.0 0.0 0.00 0.00 0.00 83 1017.3
20260903035814 76 220 0.0 1.0 0.00 0.00 0.00 83 1017.2
20260903035309 76 220 0.0 1.0 0.00 0.00 0.00 82 1017.5
20260903034804 77 220 0.0 1.0 0.00 0.00 0.00 83 1017.3
20260903034259 77 222 0.0 1.0 0.00 0.00 0.00 82 1017.4
20260903033756 76 222 0.0 1.0 0.00 0.00 0.00 82 1017.3
20260903033244 76 222 0.0 1.0 0.00 0.00 0.00 83 1017.5
20260903032744 76 222 1.0 1.0 0.00 0.00 0.00 83 1017.4
20260903032240 76 222 0.0 1.0 0.00 0.00 0.00 82 1017.6
20260903031736 76 223 0.0 1.0 0.00 0.00 0.00 83 1017.5
20260903031234 76 223 0.0 1.0 0.00 0.00 0.00 84 1017.8
20260903030731 76 222 0.0 1.0 0.00 0.00 0.00 84 1017.8
20260903030227 76 222 0.0 1.0 0.00 0.00 0.00 84 1017.6
20260903025722 77 222 0.0 0.0 0.00 0.00 0.00 83 1017.7
20260903025218 77 222 0.0 1.0 0.00 0.00 0.00 82 1017.9
20260903024717 77 222 0.0 0.0 0.00 0.00 0.00 82 1017.9
20260903024216 76 222 0.0 1.0 0.00 0.00 0.00 84 1017.7
20260903023712 76 223 0.0 0.0 0.00 0.00 0.00 84 1017.8
20260903023208 76 222 0.0 0.0 0.00 0.00 0.00 84 1017.8
20260903022707 76 222 0.0 0.0 0.00 0.00 0.00 83 1017.8
20260903022207 77 222 0.0 0.0 0.00 0.00 0.00 83 1018.0
20260903021707 77 222 0.0 1.0 0.00 0.00 0.00 83 1017.9
20260903021202 76 223 0.0 1.0 0.00 0.00 0.00 84 1018.1
20260903020657 76 223 0.0 0.0 0.00 0.00 0.00 85 1018.0
20260903020156 76 223 0.0 0.0 0.00 0.00 0.00 84 1017.8
20260903015652 76 223 0.0 0.0 0.00 0.00 0.00 84 1018.1
20260903015148 77 222 0.0 0.0 0.00 0.00 0.00 84 1018.0
20260903014642 77 223 0.0 0.0 0.00 0.00 0.00 84 1018.0
20260903014142 77 223 0.0 0.0 0.00 0.00 0.00 82 1017.8
20260903013636 78 223 0.0 0.0 0.00 0.00 0.00 82 1017.8
20260903013136 78 222 0.0 0.0 0.00 0.00 0.00 80 1017.8
20260903012635 78 222 0.0 0.0 0.00 0.00 0.00 78 1017.8
20260903012134 79 222 0.0 0.0 0.00 0.00 0.00 78 1017.7
20260903011629 79 222 0.0 0.0 0.00 0.00 0.00 77 1017.5
20260903011129 80 223 0.0 1.0 0.00 0.00 0.00 76 1017.5
20260903010624 80 223 0.0 0.0 0.00 0.00 0.00 76 1017.4
20260903010123 80 223 1.0 1.0 0.00 0.00 0.00 76 1017.5
20260903005618 80 223 1.0 1.0 0.00 0.00 0.00 76 1017.5
20260903005114 80 223 1.0 1.0 0.00 0.00 0.00 76 1017.4
20260903004613 80 223 1.0 1.0 0.00 0.00 0.00 76 1017.3
20260903004109 79 223 0.0 1.0 0.00 0.00 0.00 79 1017.3
20260903003604 80 223 0.0 0.0 0.00 0.00 0.00 79 1017.0
20260903003059 80 223 0.0 0.0 0.00 0.00 0.00 78 1017.2
20260903002554 80 223 0.0 0.0 0.00 0.00 0.00 76 1017.3
20260903002048 80 223 0.0 0.0 0.00 0.00 0.00 77 1017.2
20260903001543 81 223 0.0 0.0 0.00 0.00 0.00 76 1017.3
20260903001043 81 223 0.0 1.0 0.00 0.00 0.00 75 1017.3
20260903000538 82 223 0.0 0.0 0.00 0.00 0.00 76 1017.1
20260903000032 82 223 0.0 0.0 0.00 0.00 0.00 74 1017.3
20260902235531 83 223 0.0 0.0 0.00 0.00 0.00 74 1017.2
20260902235027 83 223 0.0 1.0 0.00 0.00 0.00 72 1017.0
20260902234526 84 223 0.0 0.0 0.00 0.00 0.00 71 1017.3
20260902234025 84 223 0.0 1.0 0.00 0.00 0.00 70 1017.0
20260902233520 84 226 0.0 0.0 0.00 0.00 0.00 71 1017.1
20260902233014 84 226 0.0 1.0 0.00 0.00 0.00 74 1017.2
20260902232514 85 226 0.0 1.0 0.00 0.00 0.00 71 1017.5
20260902232003 85 226 0.0 0.0 0.00 0.00 0.00 76 1017.4
20260902231457 85 226 0.0 0.0 0.00 0.00 0.00 72 1017.2
20260902230952 86 226 0.0 0.0 0.00 0.00 0.00 73 1017.1
20260902230451 87 227 0.0 0.0 0.00 0.00 0.00 69 1017.3
20260902225950 88 224 0.0 0.0 0.00 0.00 0.00 66 1017.4
20260902225446 89 218 0.0 0.0 0.00 0.00 0.00 70 1017.3
20260902224945 89 218 0.0 1.0 0.00 0.00 0.00 67 1017.3
20260902224444 89 218 0.0 1.0 0.00 0.00 0.00 63 1017.2
20260902223941 90 220 0.0 1.0 0.00 0.00 0.00 65 1017.2
20260902223436 91 240 0.0 0.0 0.00 0.00 0.00 65 1017.5
20260902222936 91 241 0.0 1.0 0.00 0.00 0.00 64 1017.4
20260902222435 91 203 0.0 1.0 0.00 0.00 0.00 61 1017.4
20260902221934 92 211 0.0 1.0 0.00 0.00 0.00 58 1017.3
20260902221433 93 184 0.0 1.0 0.00 0.00 0.00 56 1017.1
20260902220929 94 221 1.0 1.0 0.00 0.00 0.00 56 1017.3
20260902220429 95 201 1.0 1.0 0.00 0.00 0.00 53 1017.2
20260902215924 95 148 0.0 0.0 0.00 0.00 0.00 55 1017.4
20260902215420 95 252 0.0 1.0 0.00 0.00 0.00 56 1017.5
20260902214916 96 307 2.0 3.0 0.00 0.00 0.00 54 1017.5
20260902214415 96 255 0.0 1.0 0.00 0.00 0.00 51 1017.5
20260902213915 96 295 0.0 1.0 0.00 0.00 0.00 51 1017.5
20260902213411 96 252 0.0 2.0 0.00 0.00 0.00 55 1017.6
20260902212909 96 235 0.0 2.0 0.00 0.00 0.00 49 1017.4
20260902212406 97 247 0.0 1.0 0.00 0.00 0.00 51 1017.5
20260902211902 96 309 2.0 2.0 0.00 0.00 0.00 49 1017.5
20260902211358 95 258 0.0 1.0 0.00 0.00 0.00 57 1017.7
20260902210853 93 260 1.0 1.0 0.00 0.00 0.00 54 1017.7
20260902210352 93 236 0.0 1.0 0.00 0.00 0.00 54 1017.7
20260902205851 96 212 0.0 1.0 0.00 0.00 0.00 53 1017.6
20260902205346 97 285 3.0 3.0 0.00 0.00 0.00 47 1017.6
20260902204842 97 181 1.0 2.0 0.00 0.00 0.00 47 1017.5
20260902204341 98 260 1.0 2.0 0.00 0.00 0.00 47 1017.7
20260902203837 98 191 2.0 3.0 0.00 0.00 0.00 49 1017.7
20260902203332 98 233 1.0 3.0 0.00 0.00 0.00 49 1017.6
20260902202831 98 299 1.0 2.0 0.00 0.00 0.00 46 1017.7
20260902202328 98 286 1.0 4.0 0.00 0.00 0.00 51 1017.6
20260902201824 97 224 1.0 1.0 0.00 0.00 0.00 52 1017.7
20260902201324 97 166 3.0 4.0 0.00 0.00 0.00 49 1017.7
20260902200819 96 264 0.0 1.0 0.00 0.00 0.00 51 1017.8
20260902200314 95 298 2.0 4.0 0.00 0.00 0.00 50 1018.0
20260902195810 94 258 0.0 1.0 0.00 0.00 0.00 59 1018.0
20260902195308 95 281 0.0 1.0 0.00 0.00 0.00 55 1018.0
20260902194803 97 200 2.0 3.0 0.00 0.00 0.00 49 1017.9
20260902194258 98 290 2.0 2.0 0.00 0.00 0.00 46 1018.1
20260902193754 96 213 2.0 3.0 0.00 0.00 0.00 49 1018.2
20260902193249 95 307 1.0 2.0 0.00 0.00 0.00 49 1018.3
20260902192748 96 253 2.0 2.0 0.00 0.00 0.00 50 1018.3
20260902192247 97 281 0.0 3.0 0.00 0.00 0.00 48 1018.3
20260902191747 98 201 1.0 2.0 0.00 0.00 0.00 52 1018.5
20260902191242 98 181 1.0 3.0 0.00 0.00 0.00 51 1018.6
20260902190737 98 177 0.0 2.0 0.00 0.00 0.00 55 1018.5
20260902190237 97 191 1.0 3.0 0.00 0.00 0.00 53 1018.5
20260902185733 96 209 2.0 4.0 0.00 0.00 0.00 53 1018.6
20260902185228 96 131 2.0 6.0 0.00 0.00 0.00 50 1018.8
20260902184724 97 150 1.0 2.0 0.00 0.00 0.00 54 1018.5
20260902184219 97 234 0.0 1.0 0.00 0.00 0.00 55 1018.8
20260902183715 97 164 1.0 3.0 0.00 0.00 0.00 53 1018.7
20260902183211 97 258 1.0 3.0 0.00 0.00 0.00 54 1018.8
20260902182707 96 224 0.0 1.0 0.00 0.00 0.00 53 1018.9
20260902182203 96 163 2.0 4.0 0.00 0.00 0.00 52 1019.1
20260902181659 96 196 0.0 3.0 0.00 0.00 0.00 57 1018.9
20260902181200 96 162 0.0 6.0 0.00 0.00 0.00 55 1019.1
20260902180659 96 180 2.0 2.0 0.00 0.00 0.00 53 1019.3
20260902180155 96 145 2.0 7.0 0.00 0.00 0.00 56 1019.2
20260902175655 95 157 1.0 2.0 0.00 0.00 0.00 53 1019.1
20260902175151 95 197 3.0 6.0 0.00 0.00 0.00 54 1019.2
20260902174647 95 182 1.0 2.0 0.00 0.00 0.00 55 1019.2
20260902174143 95 197 2.0 3.0 0.00 0.00 0.00 54 1019.4
20260902173637 95 277 1.0 2.0 0.00 0.00 0.00 53 1019.4
20260902173133 95 193 2.0 4.0 0.00 0.00 0.00 54 1019.3
20260902172627 96 196 2.0 3.0 0.00 0.00 0.00 56 1019.5
20260902172126 96 187 1.0 2.0 0.00 0.00 0.00 58 1019.3
20260902171622 96 205 2.0 2.0 0.00 0.00 0.00 57 1019.5
20260902171118 96 314 1.0 3.0 0.00 0.00 0.00 53 1019.5
20260902170613 96 175 1.0 2.0 0.00 0.00 0.00 51 1019.3
20260902170109 96 228 0.0 1.0 0.00 0.00 0.00 55 1019.7
20260902165608 95 271 1.0 2.0 0.00 0.00 0.00 55 1019.7
20260902165103 95 247 0.0 6.0 0.00 0.00 0.00 58 1019.7
20260902164558 95 199 1.0 2.0 0.00 0.00 0.00 57 1019.9
20260902164056 95 167 1.0 3.0 0.00 0.00 0.00 55 1019.8
20260902163553 94 206 1.0 3.0 0.00 0.00 0.00 57 1020.0
20260902163051 94 268 1.0 2.0 0.00 0.00 0.00 57 1019.8
20260902162545 94 186 2.0 4.0 0.00 0.00 0.00 54 1019.8
20260902162040 96 216 1.0 2.0 0.00 0.00 0.00 56 1020.0
20260902161540 96 214 1.0 1.0 0.00 0.00 0.00 57 1020.0
20260902161036 96 229 1.0 1.0 0.00 0.00 0.00 56 1020.0
20260902160532 96 177 2.0 4.0 0.00 0.00 0.00 52 1020.2
20260902160027 95 216 1.0 2.0 0.00 0.00 0.00 58 1020.0
20260902155520 95 247 0.0 1.0 0.00 0.00 0.00 57 1020.3
20260902155019 95 250 1.0 2.0 0.00 0.00 0.00 57 1020.2
20260902154515 95 222 1.0 1.0 0.00 0.00 0.00 57 1020.1
20260902154009 94 241 0.0 1.0 0.00 0.00 0.00 58 1020.2
20260902153507 94 227 1.0 1.0 0.00 0.00 0.00 58 1020.3
20260902153003 94 289 0.0 1.0 0.00 0.00 0.00 61 1020.2
20260902152500 93 295 0.0 1.0 0.00 0.00 0.00 57 1020.1
20260902151954 93 291 1.0 2.0 0.00 0.00 0.00 60 1020.2
20260902151451 93 236 0.0 1.0 0.00 0.00 0.00 58 1020.2
20260902150950 93 251 0.0 2.0 0.00 0.00 0.00 59 1020.0
20260902150446 92 247 0.0 1.0 0.00 0.00 0.00 59 1020.4
20260902145946 91 284 2.0 3.0 0.00 0.00 0.00 62 1020.3
20260902145441 91 250 0.0 1.0 0.00 0.00 0.00 63 1020.3
20260902144936 91 297 1.0 2.0 0.00 0.00 0.00 60 1020.2
20260902144432 90 229 1.0 2.0 0.00 0.00 0.00 65 1020.2
20260902143932 89 242 0.0 0.0 0.00 0.00 0.00 65 1020.3
20260902143427 89 218 1.0 4.0 0.00 0.00 0.00 66 1020.4
20260902142922 88 265 0.0 2.0 0.00 0.00 0.00 68 1020.3
20260902142419 88 272 1.0 1.0 0.00 0.00 0.00 69 1020.1
20260902141914 87 245 0.0 2.0 0.00 0.00 0.00 69 1020.2
20260902141409 86 233 1.0 2.0 0.00 0.00 0.00 70 1020.3
20260902140908 85 237 1.0 1.0 0.00 0.00 0.00 72 1020.1
20260902140404 85 273 0.0 1.0 0.00 0.00 0.00 73 1020.1
20260902135903 84 225 1.0 1.0 0.00 0.00 0.00 74 1020.1
20260902135400 84 194 0.0 1.0 0.00 0.00 0.00 73 1020.2
20260902134858 84 256 1.0 1.0 0.00 0.00 0.00 74 1020.0
20260902134358 84 233 0.0 1.0 0.00 0.00 0.00 75 1019.9
20260902133855 83 224 1.0 1.0 0.00 0.00 0.00 75 1019.8
20260902133354 82 196 0.0 2.0 0.00 0.00 0.00 78 1020.0
20260902132849 82 236 1.0 2.0 0.00 0.00 0.00 78 1019.9
20260902132345 82 216 1.0 2.0 0.00 0.00 0.00 78 1020.1
20260902131840 81 215 0.0 1.0 0.00 0.00 0.00 78 1020.1
20260902131337 81 200 0.0 0.0 0.00 0.00 0.00 78 1019.9
20260902130836 81 204 1.0 1.0 0.00 0.00 0.00 79 1020.1
20260902130332 81 198 1.0 2.0 0.00 0.00 0.00 77 1019.9
20260902125827 80 195 1.0 1.0 0.00 0.00 0.00 78 1020.0
20260902125323 79 188 1.0 2.0 0.00 0.00 0.00 80 1020.1
20260902124819 79 162 1.0 2.0 0.00 0.00 0.00 79 1019.6
20260902124315 78 195 1.0 2.0 0.00 0.00 0.00 80 1020.1
20260902123809 78 195 1.0 1.0 0.00 0.00 0.00 82 1019.9
20260902123306 77 193 1.0 2.0 0.00 0.00 0.00 82 1019.6
20260902122804 76 193 0.0 1.0 0.00 0.00 0.00 84 1020.0
20260902122300 76 193 0.0 1.0 0.00 0.00 0.00 84 1019.8
20260902121800 75 194 1.0 1.0 0.00 0.00 0.00 85 1019.7
20260902121255 75 199 0.0 2.0 0.00 0.00 0.00 86 1019.8
20260902120750 74 199 1.0 2.0 0.00 0.00 0.00 88 1019.6
20260902120247 73 199 0.0 1.0 0.00 0.00 0.00 90 1019.8
20260902115747 73 199 0.0 1.0 0.00 0.00 0.00 91 1019.7
20260902115243 72 200 0.0 1.0 0.00 0.00 0.00 92 1019.5
20260902114739 72 200 0.0 1.0 0.00 0.00 0.00 93 1019.6
20260902114235 71 200 0.0 1.0 0.00 0.00 0.00 94 1019.5
20260902113735 71 200 0.0 0.0 0.00 0.00 0.00 94 1019.2
20260902113231 71 199 0.0 0.0 0.00 0.00 0.00 94 1019.3
20260902112730 71 200 0.0 0.0 0.00 0.00 0.00 94 1019.3
20260902112228 71 200 0.0 0.0 0.00 0.00 0.00 95 1019.3
20260902111722 70 199 0.0 1.0 0.00 0.00 0.00 95 1019.5
20260902111219 70 200 0.0 0.0 0.00 0.00 0.00 95 1019.4
20260902110714 70 200 0.0 0.0 0.00 0.00 0.00 94 1019.1
20260902110210 70 200 0.0 0.0 0.00 0.00 0.00 94 1019.5
20260902105709 70 200 0.0 0.0 0.00 0.00 0.00 94 1019.5
20260902105205 70 200 0.0 0.0 0.00 0.00 0.00 93 1019.4
20260902104700 70 200 0.0 0.0 0.00 0.00 0.00 93 1019.4
20260902104156 70 200 0.0 0.0 0.00 0.00 0.00 92 1019.3
20260902103654 70 200 0.0 0.0 0.00 0.00 0.00 92 1019.5
20260902103150 71 200 0.0 0.0 0.00 0.00 0.00 92 1019.3
20260902102646 71 200 0.0 0.0 0.00 0.00 0.00 92 1019.3
20260902102143 71 200 0.0 1.0 0.00 0.00 0.00 92 1019.2
20260902101638 71 200 0.0 1.0 0.00 0.00 0.00 91 1019.1
20260902101138 72 200 0.0 0.0 0.00 0.00 0.00 90 1019.3
20260902100632 72 200 0.0 0.0 0.00 0.00 0.00 89 1019.1
20260902100127 73 200 0.0 0.0 0.00 0.00 0.00 89 1019.1
20260902095626 73 200 1.0 1.0 0.00 0.00 0.00 89 1019.1
20260902095126 73 199 0.0 1.0 0.00 0.00 0.00 89 1019.1
20260902094621 72 200 0.0 2.0 0.00 0.00 0.00 90 1019.1
20260902094118 72 200 0.0 1.0 0.00 0.00 0.00 90 1019.2
20260902093617 72 200 0.0 2.0 0.00 0.00 0.00 91 1019.3
20260902093113 72 200 0.0 1.0 0.00 0.00 0.00 91 1019.1
20260902092612 72 200 0.0 1.0 0.00 0.00 0.00 92 1019.1
20260902092108 72 201 0.0 1.0 0.00 0.00 0.00 93 1018.9
20260902091602 72 205 0.0 0.0 0.00 0.00 0.00 93 1018.8
20260902091058 72 205 0.0 0.0 0.00 0.00 0.00 92 1018.9
20260902090554 72 205 0.0 1.0 0.00 0.00 0.00 92 1018.8
20260902090054 71 205 1.0 1.0 0.00 0.00 0.00 92 1018.8
20260902085554 71 205 0.0 1.0 0.00 0.00 0.00 92 1018.8
20260902085049 71 205 0.0 0.0 0.00 0.00 0.00 91 1018.7
20260902084545 72 205 0.0 0.0 0.00 0.00 0.00 91 1018.6
20260902084041 72 205 0.0 0.0 0.00 0.00 0.00 90 1018.8
20260902083536 72 205 0.0 1.0 0.00 0.00 0.00 90 1018.6
20260902083036 73 206 0.0 0.0 0.00 0.00 0.00 89 1018.5
20260902082531 73 206 0.0 0.0 0.00 0.00 0.00 90 1018.5
20260902082028 73 206 1.0 1.0 0.00 0.00 0.00 90 1018.6
20260902081524 72 206 0.0 1.0 0.00 0.00 0.00 91 1018.6
20260902081024 72 206 1.0 1.0 0.00 0.00 0.00 92 1018.5
20260902080520 71 206 1.0 2.0 0.00 0.00 0.00 93 1018.3
20260902080016 71 237 0.0 0.0 0.00 0.00 0.00 93 1018.4
20260902075510 71 237 0.0 0.0 0.00 0.00 0.00 93 1018.5
20260902075006 71 237 0.0 0.0 0.00 0.00 0.00 92 1018.4
20260902074502 71 237 0.0 0.0 0.00 0.00 0.00 91 1018.4
20260902074001 71 237 0.0 0.0 0.00 0.00 0.00 90 1018.4
20260902073457 72 237 0.0 0.0 0.00 0.00 0.00 90 1018.3
20260902072954 72 237 0.0 0.0 0.00 0.00 0.00 90 1018.6
20260902072449 73 237 0.0 0.0 0.00 0.00 0.00 90 1018.4
20260902071945 73 237 0.0 0.0 0.00 0.00 0.00 89 1018.3
20260902071444 73 237 0.0 0.0 0.00 0.00 0.00 89 1018.3
20260902070941 73 237 0.0 0.0 0.00 0.00 0.00 89 1018.4
20260902070437 73 238 0.0 1.0 0.00 0.00 0.00 88 1018.2
20260902065935 73 238 1.0 1.0 0.00 0.00 0.00 89 1018.2
20260902065430 73 238 0.0 1.0 0.00 0.00 0.00 89 1018.1
20260902064925 72 242 1.0 1.0 0.00 0.00 0.00 90 1018.2
20260902064421 72 242 1.0 1.0 0.00 0.00 0.00 91 1017.9
20260902063917 72 242 1.0 1.0 0.00 0.00 0.00 92 1018.1
20260902063416 72 242 0.0 0.0 0.00 0.00 0.00 93 1018.2
20260902062912 72 242 0.0 1.0 0.00 0.00 0.00 93 1018.3
20260902062411 71 242 0.0 0.0 0.00 0.00 0.00 93 1018.1
20260902061911 71 242 0.0 0.0 0.00 0.00 0.00 93 1018.2
20260902061406 71 242 0.0 0.0 0.00 0.00 0.00 92 1018.3
20260902060902 71 242 0.0 0.0 0.00 0.00 0.00 91 1018.4
20260902060358 71 242 0.0 0.0 0.00 0.00 0.00 90 1018.3
20260902055854 72 242 0.0 0.0 0.00 0.00 0.00 90 1018.2
20260902055349 72 242 0.0 0.0 0.00 0.00 0.00 89 1018.5
20260902054845 73 242 0.0 0.0 0.00 0.00 0.00 88 1018.4
20260902054340 74 242 0.0 0.0 0.00 0.00 0.00 87 1018.3
20260902053835 74 242 0.0 0.0 0.00 0.00 0.00 87 1018.3
20260902053330 74 242 0.0 0.0 0.00 0.00 0.00 86 1018.5
20260902052829 74 242 1.0 1.0 0.00 0.00 0.00 86 1018.3
20260902052326 74 242 0.0 1.0 0.00 0.00 0.00 86 1018.3
20260902051826 74 242 0.0 0.0 0.00 0.00 0.00 86 1018.5